Hourly Data Report for May 05, 2012

All times are specified in Local Standard Time (LST). Add 1 hour to adjust for Daylight Saving Time where and when it is observed.

SAULT STE MARIE A
ONTARIO

46°29'06.000" N
84°30'35.000" W
192.00 m
6057591
71260
YAM

Download Data

Hourly Data (May 2012)
Hourly Data Report for May 5, 2012
Temp Definition
°C
Dew Point Temp Definition
°C
Rel Hum Definition
%
Wind Dir Definition
10's deg

Wind Spd Definition
km/h
Visibility Definition
km
Stn Press Definition
kPa
Hmdx Definition


Wind Chill Definition


Weather Definition


TIME
00:00 8.4 2.7 67 8 24 10.0 99.85     LegendNANA
01:00 7.9 1.5 64 9 15 10.0 99.87     Mostly Cloudy
02:00 7.6 2.1 68 8 17 10.0 99.82     LegendNANA
03:00 7.0 0.5 63 8 18 10.0 99.83     LegendNANA
04:00 6.7 1.0 67 8 13 10.0 99.83     Mostly Cloudy
05:00 6.4 -0.3 62 9 14 10.0 99.93     LegendNANA
06:00 6.4 0.1 64 7 14 10.0 100.02     LegendNANA
07:00 6.4 -0.3 62 8 21 10.0 100.03     Mostly Cloudy
08:00 7.4 -2.3 50 9 17 10.0 100.07     LegendNANA
09:00 9.7 -3.6 39 10 18 10.0 100.08     LegendNANA
10:00 11.3 -4.4 33 10 14 10.0 100.06     Mainly Clear
11:00 13.3 -6.3 25 14 12 10.0 100.05     LegendNANA
12:00 13.5 -10.4 18 9 17 10.0 99.92     LegendNANA
13:00 15.1 -7.0 21 10 15 10.0 99.90     Mainly Clear
14:00 15.7 -8.5 18 12 9 10.0 99.92     LegendNANA
15:00 16.1 -5.6 22 16 13 10.0 99.85     LegendNANA
16:00 17.1 -6.6 19 15 10 10.0 99.81     Mainly Clear
17:00 16.7 -7.7 18 13 7 10.0 99.76     LegendNANA
18:00 16.3 -7.3 19 17 5 10.0 99.79     LegendNANA
19:00 14.7 -4.6 26 17 6 10.0 99.83     Mostly Cloudy
20:00 11.1 -5.0 32 20 10 10.0 99.85     LegendNANA
21:00 7.8 -5.3 39   0 10.0 99.87     LegendNANA
22:00 7.4 -3.5 46   0 10.0 99.89     Mainly Clear
23:00 5.5 -3.3 53   0 10.0 99.86     LegendNANA

Notes on Data Quality.

Legend

  • E = Estimated
  • M = Missing
  • NA = Not Available
Date modified: